Location: Unspecified
(0.0000°N, 0.0000°E)
Time: 14:38:30
(UTC+00:00)

COSMOS 1275 DEB - Pass Details

Date: 22 February 2026
Orbit: 902 x 1038 km, 83.0° (Epoch: 19 November)

Event Time Altitude Azimuth Distance (km) Brightness Sun altitude
Rises 03:28:21 0° 156° (SSE) 3,716 ? -40.5°
Reaches altitude 10° 03:31:34 10° 140° (SE) 2,746 ? -39.7°
Maximum altitude 03:36:07 21° 94° (E) 2,029 ? -38.6°
Drops below altitude 10° 03:40:34 10° 47° (NE) 2,680 ? -37.5°
Sets 03:43:39 0° 31° (NNE) 3,601 ? -36.8°
